Rolandia, Brazil
Current Conditions -  °F | °C
As of 1:00 PM on Friday 24 Oct 2014 (Local Time) from SBLO Reporting Station
Scattered Clouds Scattered Clouds  
Wind Chill: 84°   Ceiling: Unl
Heat Index: 86°   Visibility: 6mi
Dew Point: 66°   Wind: 9mph
Humidity: 55%   Direction: 40°NE
Pressure: 30.03"   Gusts: NA
Location:  23.31°S, 51.38°W
Report Text: SBLO 241500Z 04008KT 9999 SCT030 29/19 Q1017
Loading
Personal Weather Stations






























Interactive Weather Map
Tropical Storm Tracking
New forecast layout! Learn more

10-Day Weather Forecast

Advertisements
Track Severe Weather on mobile